Location: ????????
(54.9045°N, 39.1041°E)
Time: 11:37:07
(UTC+00:00)

H-2A R/B - Pass Details

Date: 14 April 2024
Orbit: 732 x 833 km, 98.2° (Epoch: 21 May)

Event Time Altitude Azimuth Distance (km) Brightness Sun altitude
Rises 01:20:02 0° 20° (NNE) 3,186 6.1 -9.0°
Reaches altitude 10° 01:22:29 10° 29° (NNE) 2,266 5.5 -8.7°
Maximum altitude 01:27:04 36° 96° (E) 1,184 3.6 -8.1°
Drops below altitude 10° 01:31:43 10° 163° (SSE) 2,299 4.4 -7.5°
Sets 01:34:13 0° 171° (S) 3,237 5.0 -7.2°
